sat.trackr.live / text

‹ back to catalog

STARLINK-30540

NORAD 58002 · 2023-153M

PAYLOAD ACTIVE UNKNOWN

§ Identity

Operator
Country
US
Launch date
2023-10-05
Launch site
AFETR
Launch vehicle
Mass (kg)
RCS (m²)

Purposes: comms

External: N2YO · Heavens-Above · Gunter

§ Orbital elements

Epoch: 2026-09-19T17:19:39.808992Z

Period
94.27 min
Inclination
43.0048°
Eccentricity
0.0001453
Mean motion
15.27578451 rev/d
Perigee alt
482.1 km
Apogee alt
484.1 km
Semi-major
6,861.2 km
B*
1.9758e-5
RAAN
51.0297°
Arg perigee
267.5239°
Mean anomaly
92.5446°
Rev number
16,447

§ Raw data

STARLINK-305401 58002U 23153M   26262.72198853  .00000281  00000+0  19758-4 0  99942 58002  43.0048  51.0297 0001453 267.5239  92.5446 15.27578451164474

JSON: /api/v1/satellites/58002 · /tle

For live sub-satellite position, see the globe view (requires WebGL).

§ Visibility from observer

Set your observer location to see the next 7 days of passes ≥ 10°. The values pass through the URL so the page stays shareable.

No JS? Fill the form by hand. The geolocation button needs JavaScript.